Tracking 35274 objects as of 10-Sep-2026
HD Live streaming from Space Station
objects crossing your sky now

SL-4 R/B


SL-4 R/B is no longer on orbit


NORAD ID: 15805
Int'l Code: 1985-043B
Launch date: June 6, 1985
Source: Commonwealth of Independent States (former USSR) (CIS)
Launch site: TYURATAM MISSILE AND SPACE COMPLEX (TTMTR)
Decay date: 1985-06-08

Note: This is a ROCKET BODY
Your satellite tracking list
Your tracking list is empty




NASA's NSSDC Master Catalog

Two Line Element Set (TLE):
1 15805U 85043  B 85159.78084300  .16353344 +58017-4 +27499-3 0  9995
2 15805 051.6312 350.5323 0002493 243.0436 118.1851 16.47986062000419
Source of the keplerian elements: AFSPC